#timestamp,LO_Frequency,Hit,StdDev 
1542625215.2,286047001.0,N
1542625235.0,286047000.4,N
1542625235.9,286047000.4,N
1542625255.8,286047002.4,N
1542625275.6,286047000.0,N
1542625295.4,286047000.6,N
1542625315.3,286047000.5,N
1542625335.1,286047000.0,N
1542625355.9,286047000.8,N
1542625375.7,286047000.4,N
1542625395.5,286047000.7,N
1542625415.4,286046998.6,N
1542625435.2,286047000.9,N
1542625455.1,286047001.8,N
1542625456.0,286047001.8,N
1542625475.8,286047002.2,N
1542625495.6,286046999.7,N
1542625515.5,286047000.0,N
1542625535.3,286047000.3,N
1542625555.2,286047001.0,N
1542625575.9,286047000.0,N
1542625595.7,286046999.9,N
1542625615.6,286047000.0,N
1542625635.4,286047002.3,N
1542625655.2,286047002.8,Y
1542625675.1,286046999.8,P
1542625676.0,286046999.8,N
1542625695.8,286047000.4,N
1542625715.7,286047000.0,N
1542625735.5,286047000.2,N
1542625755.5,286047000.0,N
1542625775.3,286047000.1,N
1542625795.2,286047000.4,N
1542625815.0,286047000.6,N
1542625815.9,286047000.6,N
1542625835.8,286047000.0,N
1542625855.6,286046999.9,N
1542625875.4,286047002.5,Y
1542625895.3,286047002.8,P
1542625915.1,286047000.6,N
1542625935.9,286047002.8,N
1542625955.7,286047002.6,N
1542625975.5,286047002.4,N
1542625995.4,286047004.0,Y
1542626015.2,286047000.4,P
1542626035.0,286047002.8,P
1542626036.0,286047002.8,N
1542626055.8,286047000.7,N
1542626075.6,286046998.8,N
1542626095.5,286046999.3,N
1542626115.3,286046999.1,N
1542626135.1,286046998.8,N
1542626155.9,286046998.1,N
1542626175.7,286046999.3,N
1542626195.6,286046999.0,N
1542626215.4,286046997.7,N
1542626235.2,286046996.9,N
1542626255.1,286046996.8,N
1542626256.0,286046996.8,N
1542626275.8,286046997.4,N
1542626295.7,286046997.5,N
1542626315.5,286046994.9,N
1542626336.5,286046998.0,N
1542626355.4,286046997.3,N
1542626375.2,286046996.9,N
1542626395.1,286046999.5,N
1542626396.0,286046999.5,N
1542626415.8,286046999.5,N
1542626435.7,286046997.0,N
1542626455.5,286046997.3,N
1542626475.3,286046996.8,N
1542626495.2,286046996.7,N
1542626515.0,286046997.3,N
1542626515.9,286046997.3,N
1542626535.7,286046999.3,N
1542626555.6,286046998.9,N
1542626575.4,286046999.0,N
1542626595.3,286046999.0,N
1542626615.1,286046999.4,N
1542626635.9,286046999.4,N
1542626655.7,286046999.3,N
1542626675.5,286046999.6,N
1542626695.4,286046999.6,N
1542626715.2,286046998.8,N
1542626735.0,286047001.2,N
1542626735.9,286047001.2,N
1542626755.8,286046998.9,N
1542626775.6,286046998.5,N
1542626795.5,286047000.5,N
1542626815.3,286047000.5,N
1542626835.1,286046999.8,N
1542626855.9,286047001.6,N
1542626875.7,286047002.8,N
1542626895.5,286047000.2,N
1542626915.4,286047002.5,N
1542626935.2,286047000.6,N
1542626955.1,286046999.0,N
1542626956.0,286046999.0,N
1542626975.8,286046999.1,N
1542626995.6,286046998.1,N
1542627015.5,286046998.2,N
1542627035.3,286046998.1,N
1542627055.2,286047000.4,N
1542627075.9,286046998.2,N
1542627095.7,286047000.9,N
1542627115.6,286046999.9,N
1542627135.4,286047000.2,N
1542627155.2,286047001.7,N
1542627175.1,286047002.3,N
1542627176.0,286047002.3,N
1542627195.8,286047002.2,N
1542627215.7,286047002.5,N
1542627235.5,286047000.2,N
1542627255.3,286047000.2,N
1542627275.2,286047000.0,N
1542627295.9,286047000.7,N
1542627315.7,286047001.1,N
1542627335.6,286046998.6,N
1542627355.4,286047000.8,N
1542627375.3,286047000.0,N
1542627395.1,286047000.1,N
1542627396.0,286047000.1,N
1542627415.8,286046999.9,N
1542627435.7,286047000.3,N
1542627455.5,286047002.3,N
1542627475.3,286047000.5,N
1542627495.2,286046999.8,N
1542627515.0,286047000.2,N
1542627515.9,286047000.2,N
1542627535.8,286047002.1,N
1542627555.6,286047000.2,N
1542627575.4,286046999.9,N
1542627595.3,286047000.4,N
1542627615.1,286047002.8,N
1542627635.8,286047000.0,N
1542627655.7,286046999.9,N
1542627675.5,286047000.9,N
1542627695.4,286046998.2,N
1542627715.2,286046999.4,N
1542627735.8,286046999.1,N
1542627755.6,286046999.2,N
1542627775.5,286046996.6,Y
1542627795.3,286046996.9,P
1542627815.1,286046999.5,N
1542627835.9,286046998.3,N
1542627855.7,286046999.3,N
1542627875.6,286046998.9,N
1542627895.4,286046999.3,N
1542627915.2,286047000.7,N
1542627935.1,286046999.9,N
1542627936.0,286046999.9,N
1542627955.8,286047002.7,N
1542627975.5,286047000.3,N
1542627995.4,286047000.9,N
1542628015.2,286047000.3,N
1542628035.0,286047002.8,N
1542628035.9,286047002.8,N
1542628055.8,286047000.4,N
1542628075.6,286046999.8,N
1542628095.5,286047002.0,N
1542628115.3,286047001.5,N
1542628135.1,286047001.7,N
1542628155.9,286047004.3,N
1542628175.7,286047001.4,N
1542628195.5,286047002.2,N
1542628215.4,286047001.7,N
1542628235.2,286047002.7,N
1542628255.1,286047000.1,N
1542628256.0,286047000.1,N
1542628275.8,286047000.2,N
1542628295.6,286047000.1,N
1542628315.5,286046999.8,N
1542628335.3,286047000.5,N
1542628355.1,286046999.8,N
1542628375.9,286047000.1,N
1542628395.7,286047000.2,N
1542628415.6,286046999.9,N
1542628435.4,286047000.2,N
1542628455.2,286047000.0,N
1542628475.1,286047000.5,N
1542628476.0,286047000.5,N
1542628495.8,286047000.8,N
1542628515.6,286047001.2,N
1542628535.5,286046998.1,N
1542628555.3,286047000.7,N
1542628575.2,286047000.9,N
1542628595.9,286047000.3,N
1542628615.7,286047001.2,N
1542628635.6,286047000.5,N
1542628655.4,286046999.0,N
1542628675.3,286047000.8,N
1542628695.1,286046998.7,N
1542628696.0,286046998.7,N
1542628715.8,286046999.4,N
1542628735.7,286046998.9,N
1542628755.5,286046998.8,N
1542628775.3,286047000.9,N
1542628795.2,286047000.0,N
